Home   Weather   Frankfurt   Past weeks

Flag for Germany Past Weather in Frankfurt, Hesse, Germany — Yesterday and Last 2 Weeks

Now
39 °F

Partly sunny.


Feels Like: 35 °F
Forecast: 31 / 43 °F
Wind: 6 mph from Southwest

Location: Frankfurt-M-Flughafen Airport

Current Time: Dec 9, 2016 at 2:31:40 pm

Latest Report: Dec 9, 2016 at 1:50 pm


Visibility: N/A

Pressure: 30.45 "Hg

Humidity: 87%

Dew Point: 36 °F

Location of FrankfurtLocation

Past Weather in Frankfurt — Graph

°F

Frankfurt Temperature Yesterday

Maximum temperature yesterday: 32 °F (at 3:20 pm)
Minimum temperature yesterday: 30 °F (at 12:20 am)
Average temperature yesterday: 30 °F

High & Low Weather Summary for the Past Weeks

 TemperatureHumidityPressure
High57 °F (Nov 24, 1:50 pm)100% (Nov 27, 4:20 am)30.60 "Hg (Nov 27, 4:20 am)
Low18 °F (Nov 30, 8:20 am)48% (Nov 28, 2:20 pm)30.04 "Hg (Nov 24, 1:50 pm)
Average35 °F83%30.33 "Hg
* Reported Nov 24 1:20 pm — Dec 9 1:20 pm, Frankfurt, Weather by CustomWeather, © 2016

Note: Actual official high and low records may vary slightly from our data, if they occured in-between our weather recording intervals... More about our weather records

Advertising

Frankfurt Weather History for the Previous 24 Hours

Scroll right to see more
 ConditionsComfort  
Time TempWeatherWind HumidityBarometerVisibility
1:20 pm
Fri, Dec 9
37 °FPartly sunny.6 mph93%30.45 "HgN/A
12:50 pm37 °FPartly sunny.7 mph93%30.48 "HgN/A
12:20 pm37 °FPartly sunny.6 mph87%30.48 "HgN/A
11:50 am37 °FPartly sunny.8 mph87%30.45 "HgN/A
11:20 am37 °FPartly sunny.8 mph87%30.45 "HgN/A
10:50 am36 °FPartly sunny.8 mph93%30.48 "HgN/A
10:20 am36 °FPartly sunny.5 mph93%30.48 "HgN/A
9:50 am36 °FPartly sunny.5 mph93%30.45 "HgN/A
9:20 am34 °FPartly sunny.7 mph93%30.45 "HgN/A
8:50 am34 °FPartly sunny.6 mph93%30.45 "HgN/A
8:20 am34 °FPartly sunny.6 mph93%30.45 "HgN/A
7:50 am34 °FOvercast.3 mph93%30.45 "HgN/A
7:20 am34 °FOvercast.8 mph93%30.42 "HgN/A
6:50 am32 °FOvercast.8 mph100%30.45 "HgN/A
6:20 am32 °FOvercast.6 mph93%30.45 "HgN/A
5:20 am32 °FPassing clouds.6 mph93%30.45 "Hg4 mi
4:50 am32 °FPassing clouds.5 mph93%30.42 "Hg4 mi
4:20 am30 °FIce fog.2 mph93%30.45 "Hg3 mi
3:50 am30 °FIce fog.3 mph93%30.42 "Hg2 mi
3:20 am30 °FIce fog.5 mph93%30.45 "Hg2 mi
2:50 am28 °FIce fog.5 mph100%30.45 "Hg1 mi
2:20 am28 °FIce fog.6 mph100%30.45 "Hg1 mi
1:50 am30 °FSleet. Overcast.7 mph93%30.45 "Hg1 mi
1:20 am30 °FIce fog.7 mph93%30.45 "Hg1 mi
12:50 am30 °FIce fog.7 mph93%30.45 "Hg1 mi
12:20 am30 °FIce fog.5 mph93%30.45 "Hg1 mi
11:50 pm
Thu, Dec 8
30 °FIce fog.5 mph93%30.45 "Hg1 mi
11:20 pm30 °FIce fog.6 mph100%30.45 "Hg1 mi
10:50 pm30 °FIce fog.6 mph93%30.45 "Hg1 mi
10:20 pm30 °FIce fog.6 mph100%30.45 "Hg1 mi
9:50 pm30 °FChilly.8 mph100%30.48 "Hg1 mi
9:20 pm30 °FChilly.6 mph100%30.48 "Hg1 mi
8:50 pm32 °FIce fog.6 mph93%30.48 "Hg1 mi
8:20 pm30 °FIce fog.6 mph100%30.45 "Hg1 mi
7:50 pm32 °FIce fog.6 mph93%30.48 "Hg1 mi
7:20 pm32 °FIce fog.6 mph93%30.48 "Hg2 mi
6:50 pm32 °FIce fog.6 mph93%30.48 "Hg2 mi
6:20 pm32 °FIce fog.6 mph93%30.45 "Hg2 mi
5:50 pm30 °FIce fog.7 mph100%30.48 "Hg1 mi
5:20 pm30 °FIce fog.5 mph100%30.45 "Hg1 mi
4:50 pm30 °FIce fog.6 mph100%30.48 "Hg1 mi
4:20 pm32 °FIce fog.8 mph93%30.48 "Hg1 mi
3:50 pm32 °FIce fog.6 mph93%30.48 "Hg1 mi
3:20 pm32 °FIce fog.5 mph93%30.48 "Hg1 mi
2:50 pm30 °FIce fog.6 mph100%30.48 "Hg1 mi
2:20 pm30 °FIce fog.7 mph100%30.48 "Hg1 mi
Weather by CustomWeather, © 2016

See weather overviewHow to use our weather pages